| time (UTC) | temp F | wind direction | speed MPH | gust MPH | rain 1hr in | rain 24hr in | rain mn in | humidity % | barometer mb |
| 20260510133704 | 60 | 37 | 5.0 | 17.0 | 0.00 | 0.00 | 0.00 | 66 | 1013.3 |
| 20260510133204 | 59 | 338 | 5.0 | 14.0 | 0.00 | 0.00 | 0.00 | 67 | 1013.3 |
| 20260510131704 | 60 | 1 | 5.0 | 15.0 | 0.00 | 0.00 | 0.00 | 63 | 1013.4 |
| 20260510130704 | 62 | 326 | 5.0 | 12.0 | 0.00 | 0.00 | 0.00 | 61 | 1013.4 |
| 20260510130204 | 62 | 31 | 5.0 | 13.0 | 0.00 | 0.00 | 0.00 | 61 | 1013.4 |
| 20260510125704 | 61 | 2 | 6.0 | 14.0 | 0.00 | 0.00 | 0.00 | 62 | 1013.5 |
| 20260510125204 | 60 | 349 | 7.0 | 16.0 | 0.00 | 0.00 | 0.00 | 64 | 1013.5 |
| 20260510124703 | 60 | 11 | 8.0 | 16.0 | 0.00 | 0.00 | 0.00 | 65 | 1013.6 |
| 20260510124204 | 62 | 4 | 6.0 | 14.0 | 0.00 | 0.00 | 0.00 | 62 | 1013.6 |
| 20260510123704 | 61 | 22 | 7.0 | 13.0 | 0.00 | 0.00 | 0.00 | 62 | 1013.6 |
| 20260510123203 | 60 | 358 | 2.0 | 12.0 | 0.00 | 0.00 | 0.00 | 65 | 1013.7 |
| 20260510122704 | 61 | 348 | 7.0 | 15.0 | 0.00 | 0.00 | 0.00 | 64 | 1013.8 |
| 20260510121204 | 59 | 5 | 6.0 | 14.0 | 0.00 | 0.00 | 0.00 | 65 | 1014.0 |
| 20260510120704 | 59 | 338 | 7.0 | 16.0 | 0.00 | 0.00 | 0.00 | 65 | 1014.1 |
| 20260510120204 | 60 | 355 | 7.0 | 17.0 | 0.00 | 0.00 | 0.00 | 66 | 1014.1 |
| 20260510115705 | 60 | 333 | 9.0 | 18.0 | 0.00 | 0.00 | 0.00 | 64 | 1014.2 |
| 20260510115204 | 61 | 351 | 5.0 | 17.0 | 0.00 | 0.00 | 0.00 | 64 | 1014.1 |
| 20260510114704 | 60 | 333 | 7.0 | 15.0 | 0.00 | 0.00 | 0.00 | 65 | 1014.1 |
| 20260510114203 | 61 | 355 | 5.0 | 14.0 | 0.00 | 0.00 | 0.00 | 66 | 1014.0 |
| 20260510113202 | 61 | 323 | 9.0 | 15.0 | 0.00 | 0.00 | 0.00 | 65 | 1014.1 |
| 20260510112702 | 60 | 333 | 7.0 | 17.0 | 0.00 | 0.00 | 0.00 | 65 | 1014.1 |
| 20260510112202 | 61 | 319 | 8.0 | 15.0 | 0.00 | 0.00 | 0.00 | 64 | 1014.1 |
| 20260510111702 | 61 | 352 | 3.0 | 14.0 | 0.00 | 0.00 | 0.00 | 65 | 1014.1 |
| 20260510111202 | 60 | 325 | 10.0 | 16.0 | 0.00 | 0.00 | 0.00 | 65 | 1014.2 |
| 20260510110703 | 61 | 319 | 8.0 | 15.0 | 0.00 | 0.00 | 0.00 | 66 | 1014.2 |
| 20260510110202 | 61 | 338 | 9.0 | 17.0 | 0.00 | 0.00 | 0.00 | 64 | 1014.2 |
| 20260510105703 | 62 | 344 | 7.0 | 13.0 | 0.00 | 0.00 | 0.00 | 64 | 1014.1 |
| 20260510105204 | 62 | 358 | 9.0 | 14.0 | 0.00 | 0.00 | 0.00 | 62 | 1014.1 |
| 20260510104703 | 62 | 349 | 5.0 | 13.0 | 0.00 | 0.00 | 0.00 | 61 | 1014.1 |
| 20260510104203 | 61 | 358 | 7.0 | 14.0 | 0.00 | 0.00 | 0.00 | 63 | 1014.2 |
| 20260510103702 | 60 | 342 | 7.0 | 16.0 | 0.00 | 0.00 | 0.00 | 64 | 1014.1 |
| 20260510102704 | 62 | 344 | 6.0 | 15.0 | 0.00 | 0.00 | 0.00 | 62 | 1014.1 |
| 20260510102203 | 61 | 34 | 3.0 | 14.0 | 0.00 | 0.00 | 0.00 | 63 | 1014.1 |
| 20260510101202 | 61 | 332 | 9.0 | 15.0 | 0.00 | 0.00 | 0.00 | 62 | 1014.1 |
| 20260510100702 | 61 | 3 | 6.0 | 12.0 | 0.00 | 0.00 | 0.00 | 63 | 1014.2 |
| 20260510100202 | 61 | 26 | 7.0 | 14.0 | 0.00 | 0.00 | 0.00 | 60 | 1014.1 |
| 20260510095703 | 61 | 338 | 8.0 | 18.0 | 0.00 | 0.00 | 0.00 | 62 | 1014.1 |
| 20260510095203 | 62 | 347 | 6.0 | 15.0 | 0.00 | 0.00 | 0.00 | 63 | 1014.1 |
| 20260510094703 | 61 | 5 | 4.0 | 14.0 | 0.00 | 0.00 | 0.00 | 64 | 1014.1 |
| 20260510094203 | 61 | 328 | 6.0 | 16.0 | 0.00 | 0.00 | 0.00 | 63 | 1014.2 |
| 20260510093704 | 61 | 35 | 6.0 | 12.0 | 0.00 | 0.00 | 0.00 | 61 | 1014.2 |
| 20260510093203 | 61 | 15 | 7.0 | 15.0 | 0.00 | 0.00 | 0.00 | 62 | 1014.2 |
| 20260510092703 | 61 | 325 | 8.0 | 16.0 | 0.00 | 0.00 | 0.00 | 62 | 1014.3 |
| 20260510091702 | 60 | 356 | 6.0 | 12.0 | 0.00 | 0.00 | 0.00 | 62 | 1014.2 |
| 20260510091203 | 60 | 346 | 5.0 | 12.0 | 0.00 | 0.00 | 0.00 | 63 | 1014.3 |
| 20260510090203 | 60 | 0 | 5.0 | 13.0 | 0.00 | 0.00 | 0.00 | 62 | 1014.3 |
| 20260510085703 | 60 | 4 | 5.0 | 15.0 | 0.00 | 0.00 | 0.00 | 62 | 1014.3 |
| 20260510085203 | 60 | 20 | 6.0 | 14.0 | 0.00 | 0.00 | 0.00 | 62 | 1014.3 |
| 20260510084703 | 60 | 27 | 6.0 | 15.0 | 0.00 | 0.00 | 0.00 | 63 | 1014.3 |
| 20260510084203 | 60 | 349 | 6.0 | 14.0 | 0.00 | 0.00 | 0.00 | 63 | 1014.3 |
| 20260510083702 | 60 | 4 | 7.0 | 13.0 | 0.00 | 0.00 | 0.00 | 62 | 1014.3 |
| 20260510083202 | 59 | 26 | 4.0 | 12.0 | 0.00 | 0.00 | 0.00 | 62 | 1014.2 |
| 20260510082703 | 59 | 21 | 6.0 | 15.0 | 0.00 | 0.00 | 0.00 | 62 | 1014.3 |
| 20260510082203 | 59 | 31 | 7.0 | 14.0 | 0.00 | 0.00 | 0.00 | 62 | 1014.3 |
| 20260510081703 | 59 | 328 | 5.0 | 12.0 | 0.00 | 0.00 | 0.00 | 63 | 1014.4 |
| 20260510081202 | 59 | 345 | 3.0 | 12.0 | 0.00 | 0.00 | 0.00 | 64 | 1014.3 |
| 20260510080703 | 59 | 6 | 5.0 | 13.0 | 0.00 | 0.00 | 0.00 | 63 | 1014.4 |
| 20260510080203 | 59 | 349 | 5.0 | 17.0 | 0.00 | 0.00 | 0.00 | 64 | 1014.4 |
| 20260510075203 | 58 | 0 | 6.0 | 12.0 | 0.00 | 0.00 | 0.00 | 64 | 1014.4 |
| 20260510074703 | 58 | 33 | 5.0 | 14.0 | 0.00 | 0.00 | 0.00 | 64 | 1014.4 |
| 20260510073703 | 57 | 1 | 6.0 | 12.0 | 0.00 | 0.00 | 0.00 | 66 | 1014.4 |
| 20260510073203 | 57 | 346 | 4.0 | 9.0 | 0.00 | 0.00 | 0.00 | 66 | 1014.5 |
| 20260510072705 | 57 | 350 | 3.0 | 12.0 | 0.00 | 0.00 | 0.00 | 66 | 1014.5 |
| 20260510071703 | 56 | 327 | 5.0 | 12.0 | 0.00 | 0.00 | 0.00 | 66 | 1014.4 |
| 20260510071203 | 56 | 6 | 6.0 | 13.0 | 0.00 | 0.00 | 0.00 | 66 | 1014.4 |
| 20260510070703 | 56 | 352 | 4.0 | 12.0 | 0.00 | 0.00 | 0.00 | 68 | 1014.4 |
| 20260510070203 | 56 | 344 | 5.0 | 14.0 | 0.00 | 0.00 | 0.00 | 67 | 1014.4 |
| 20260510065704 | 56 | 23 | 6.0 | 16.0 | 0.00 | 0.00 | 0.00 | 68 | 1014.4 |
| 20260510065203 | 55 | 343 | 5.0 | 14.0 | 0.00 | 0.00 | 0.00 | 69 | 1014.4 |
| 20260510064704 | 55 | 339 | 6.0 | 13.0 | 0.00 | 0.00 | 0.00 | 70 | 1014.4 |
| 20260510064203 | 55 | 3 | 5.0 | 13.0 | 0.00 | 0.00 | 0.00 | 69 | 1014.3 |
| 20260510063703 | 55 | 357 | 6.0 | 14.0 | 0.00 | 0.00 | 0.00 | 69 | 1014.3 |
| 20260510063203 | 54 | 337 | 3.0 | 10.0 | 0.00 | 0.00 | 0.00 | 71 | 1014.4 |
| 20260510062703 | 54 | 3 | 3.0 | 9.0 | 0.00 | 0.00 | 0.00 | 73 | 1014.4 |
| 20260510062203 | 54 | 358 | 5.0 | 12.0 | 0.00 | 0.00 | 0.00 | 73 | 1014.3 |
| 20260510061704 | 54 | 354 | 3.0 | 9.0 | 0.00 | 0.00 | 0.00 | 73 | 1014.3 |
| 20260510061204 | 53 | 340 | 3.0 | 10.0 | 0.00 | 0.00 | 0.00 | 73 | 1014.3 |
| 20260510060204 | 53 | 5 | 3.0 | 7.0 | 0.00 | 0.00 | 0.00 | 75 | 1014.3 |
| 20260510055704 | 52 | 348 | 2.0 | 6.0 | 0.00 | 0.00 | 0.00 | 76 | 1014.4 |
| 20260510055203 | 52 | 347 | 3.0 | 9.0 | 0.00 | 0.00 | 0.00 | 77 | 1014.4 |
| 20260510054704 | 52 | 350 | 4.0 | 8.0 | 0.00 | 0.00 | 0.00 | 78 | 1014.4 |
| 20260510054203 | 51 | 348 | 3.0 | 9.0 | 0.00 | 0.00 | 0.00 | 80 | 1014.4 |
| 20260510053703 | 51 | 339 | 4.0 | 8.0 | 0.00 | 0.00 | 0.00 | 82 | 1014.4 |
| 20260510053203 | 51 | 338 | 3.0 | 9.0 | 0.00 | 0.00 | 0.00 | 83 | 1014.4 |
| 20260510052703 | 50 | 326 | 3.0 | 8.0 | 0.00 | 0.00 | 0.00 | 84 | 1014.4 |
| 20260510052203 | 50 | 334 | 2.0 | 8.0 | 0.00 | 0.00 | 0.00 | 84 | 1014.3 |
| 20260510051203 | 49 | 311 | 2.0 | 8.0 | 0.00 | 0.00 | 0.00 | 86 | 1014.3 |
| 20260510050704 | 49 | 316 | 2.0 | 3.0 | 0.00 | 0.00 | 0.00 | 86 | 1014.3 |
| 20260510050204 | 49 | 312 | 2.0 | 3.0 | 0.00 | 0.00 | 0.00 | 86 | 1014.3 |
| 20260510045203 | 49 | 330 | 2.0 | 3.0 | 0.00 | 0.00 | 0.00 | 87 | 1014.3 |
| 20260510044703 | 49 | 328 | 2.0 | 5.0 | 0.00 | 0.00 | 0.00 | 87 | 1014.2 |
| 20260510043704 | 49 | 335 | 2.0 | 5.0 | 0.00 | 0.00 | 0.00 | 87 | 1014.2 |
| 20260510043204 | 49 | 327 | 1.0 | 3.0 | 0.00 | 0.00 | 0.00 | 87 | 1014.3 |
| 20260510042703 | 49 | 345 | 1.0 | 3.0 | 0.00 | 0.00 | 0.00 | 87 | 1014.4 |
| 20260510042203 | 49 | 340 | 2.0 | 3.0 | 0.00 | 0.00 | 0.00 | 87 | 1014.3 |
| 20260510041204 | 49 | 327 | 2.0 | 5.0 | 0.00 | 0.00 | 0.00 | 87 | 1014.4 |
| 20260510040704 | 49 | 336 | 2.0 | 5.0 | 0.00 | 0.00 | 0.00 | 87 | 1014.3 |
| 20260510040204 | 49 | 331 | 1.0 | 5.0 | 0.00 | 0.00 | 0.00 | 87 | 1014.4 |
| 20260510035704 | 49 | 327 | 2.0 | 5.0 | 0.00 | 0.00 | 0.00 | 87 | 1014.4 |
| 20260510035204 | 49 | 329 | 2.0 | 3.0 | 0.00 | 0.00 | 0.00 | 87 | 1014.4 |
| 20260510034704 | 49 | 332 | 2.0 | 6.0 | 0.00 | 0.00 | 0.00 | 87 | 1014.4 |
| 20260510034203 | 49 | 322 | 1.0 | 3.0 | 0.00 | 0.00 | 0.00 | 86 | 1014.5 |
| 20260510033704 | 49 | 324 | 1.0 | 3.0 | 0.00 | 0.00 | 0.00 | 86 | 1014.4 |
| 20260510032703 | 49 | 326 | 2.0 | 6.0 | 0.00 | 0.00 | 0.00 | 86 | 1014.4 |
| 20260510031704 | 49 | 322 | 1.0 | 5.0 | 0.00 | 0.00 | 0.00 | 86 | 1014.4 |
| 20260510031204 | 49 | 316 | 2.0 | 5.0 | 0.00 | 0.00 | 0.00 | 86 | 1014.4 |
| 20260510030703 | 49 | 333 | 3.0 | 7.0 | 0.00 | 0.00 | 0.00 | 86 | 1014.3 |
| 20260510030203 | 49 | 5 | 2.0 | 5.0 | 0.00 | 0.00 | 0.00 | 86 | 1014.3 |
| 20260510025703 | 49 | 332 | 0.0 | 3.0 | 0.00 | 0.00 | 0.00 | 85 | 1014.4 |
| 20260510025203 | 49 | 313 | 3.0 | 5.0 | 0.00 | 0.00 | 0.00 | 85 | 1014.5 |
| 20260510024204 | 49 | 332 | 1.0 | 3.0 | 0.00 | 0.00 | 0.00 | 85 | 1014.5 |
| 20260510023703 | 49 | 334 | 1.0 | 3.0 | 0.00 | 0.00 | 0.00 | 84 | 1014.6 |
| 20260510023203 | 49 | 336 | 3.0 | 5.0 | 0.00 | 0.00 | 0.00 | 84 | 1014.7 |
| 20260510021703 | 50 | 305 | 2.0 | 3.0 | 0.00 | 0.00 | 0.00 | 83 | 1014.7 |
| 20260510021204 | 50 | 315 | 1.0 | 5.0 | 0.00 | 0.00 | 0.00 | 83 | 1014.8 |
| 20260510015704 | 50 | 324 | 2.0 | 5.0 | 0.00 | 0.00 | 0.00 | 83 | 1014.8 |
| 20260510015204 | 50 | 319 | 2.0 | 3.0 | 0.00 | 0.00 | 0.00 | 84 | 1014.8 |
| 20260510014703 | 50 | 301 | 2.0 | 5.0 | 0.00 | 0.00 | 0.00 | 84 | 1014.9 |
| 20260510013704 | 50 | 328 | 3.0 | 7.0 | 0.00 | 0.00 | 0.00 | 84 | 1014.8 |
| 20260510013204 | 50 | 305 | 3.0 | 3.0 | 0.00 | 0.00 | 0.00 | 84 | 1014.8 |
| 20260510012703 | 50 | 321 | 1.0 | 3.0 | 0.00 | 0.00 | 0.00 | 85 | 1014.8 |
| 20260510012203 | 50 | 303 | 2.0 | 8.0 | 0.00 | 0.00 | 0.00 | 85 | 1014.8 |
| 20260510011204 | 50 | 320 | 1.0 | 3.0 | 0.00 | 0.00 | 0.00 | 85 | 1014.8 |
| 20260510010703 | 50 | 303 | 1.0 | 3.0 | 0.00 | 0.00 | 0.00 | 85 | 1014.9 |
| 20260510010203 | 50 | 315 | 1.0 | 3.0 | 0.00 | 0.00 | 0.00 | 85 | 1014.9 |
| 20260510005203 | 50 | 295 | 1.0 | 3.0 | 0.00 | 0.00 | 0.00 | 85 | 1014.9 |
| 20260510004204 | 50 | 298 | 1.0 | 3.0 | 0.00 | 0.00 | 0.00 | 85 | 1015.0 |
| 20260510003704 | 50 | 317 | 1.0 | 3.0 | 0.00 | 0.00 | 0.00 | 85 | 1015.0 |
| 20260510003204 | 50 | 305 | 1.0 | 3.0 | 0.00 | 0.00 | 0.00 | 85 | 1015.0 |
| 20260510002703 | 50 | 308 | 2.0 | 3.0 | 0.00 | 0.00 | 0.00 | 85 | 1015.1 |
| 20260510002204 | 50 | 311 | 1.0 | 3.0 | 0.00 | 0.00 | 0.00 | 85 | 1015.1 |
| 20260510001705 | 50 | 313 | 0.0 | 3.0 | 0.00 | 0.00 | 0.00 | 84 | 1015.1 |
| 20260510001204 | 50 | 313 | 1.0 | 3.0 | 0.00 | 0.00 | 0.00 | 85 | 1015.1 |
| 20260509235704 | 50 | 321 | 0.0 | 2.0 | 0.00 | 0.00 | 0.00 | 85 | 1015.2 |
| 20260509235204 | 50 | 322 | 1.0 | 3.0 | 0.00 | 0.00 | 0.00 | 85 | 1015.2 |
| 20260509234204 | 50 | 312 | 1.0 | 2.0 | 0.00 | 0.00 | 0.00 | 85 | 1015.4 |
| 20260509233704 | 50 | 322 | 1.0 | 2.0 | 0.00 | 0.00 | 0.00 | 85 | 1015.4 |
| 20260509233204 | 51 | 297 | 1.0 | 3.0 | 0.00 | 0.00 | 0.00 | 85 | 1015.4 |
| 20260509232704 | 51 | 307 | 1.0 | 3.0 | 0.00 | 0.00 | 0.00 | 85 | 1015.5 |
| 20260509232204 | 51 | 317 | 1.0 | 2.0 | 0.00 | 0.00 | 0.00 | 85 | 1015.5 |
| 20260509231704 | 51 | 287 | 1.0 | 3.0 | 0.00 | 0.00 | 0.00 | 85 | 1015.6 |
| 20260509231204 | 51 | 315 | 0.0 | 2.0 | 0.00 | 0.00 | 0.00 | 84 | 1015.6 |
| 20260509230704 | 51 | 312 | 1.0 | 3.0 | 0.00 | 0.00 | 0.00 | 84 | 1015.7 |
| 20260509230204 | 51 | 298 | 1.0 | 3.0 | 0.00 | 0.00 | 0.00 | 84 | 1015.7 |
| 20260509225704 | 51 | 300 | 1.0 | 2.0 | 0.00 | 0.00 | 0.00 | 84 | 1015.7 |
| 20260509225204 | 51 | 333 | 0.0 | 2.0 | 0.00 | 0.00 | 0.00 | 84 | 1015.7 |
| 20260509224704 | 51 | 325 | 0.0 | 2.0 | 0.00 | 0.00 | 0.00 | 84 | 1015.7 |
| 20260509223704 | 52 | 329 | 1.0 | 2.0 | 0.00 | 0.00 | 0.00 | 83 | 1015.8 |
| 20260509223204 | 52 | 313 | 1.0 | 3.0 | 0.00 | 0.00 | 0.00 | 83 | 1015.7 |
| 20260509222704 | 52 | 316 | 1.0 | 3.0 | 0.00 | 0.00 | 0.00 | 83 | 1015.7 |
| 20260509222204 | 52 | 312 | 1.0 | 3.0 | 0.00 | 0.00 | 0.00 | 83 | 1015.8 |
| 20260509221704 | 52 | 332 | 1.0 | 2.0 | 0.00 | 0.00 | 0.00 | 82 | 1015.8 |
| 20260509221205 | 52 | 317 | 1.0 | 2.0 | 0.00 | 0.00 | 0.00 | 82 | 1015.8 |
| 20260509220704 | 52 | 327 | 0.0 | 2.0 | 0.00 | 0.00 | 0.00 | 82 | 1015.8 |
| 20260509220205 | 52 | 331 | 0.0 | 2.0 | 0.00 | 0.00 | 0.00 | 81 | 1015.8 |
| 20260509215703 | 52 | 321 | 1.0 | 2.0 | 0.00 | 0.00 | 0.00 | 81 | 1015.9 |
| 20260509215203 | 52 | 359 | 1.0 | 3.0 | 0.00 | 0.00 | 0.00 | 81 | 1015.9 |
| 20260509214704 | 52 | 317 | 0.0 | 2.0 | 0.00 | 0.00 | 0.00 | 81 | 1015.9 |
| 20260509214203 | 53 | 13 | 1.0 | 3.0 | 0.00 | 0.00 | 0.00 | 80 | 1016.0 |
| 20260509213703 | 53 | 340 | 2.0 | 3.0 | 0.00 | 0.00 | 0.00 | 80 | 1016.0 |
| 20260509213203 | 53 | 321 | 1.0 | 3.0 | 0.00 | 0.00 | 0.00 | 80 | 1016.1 |
| 20260509212703 | 53 | 330 | 1.0 | 2.0 | 0.00 | 0.00 | 0.00 | 80 | 1016.1 |
| 20260509211703 | 53 | 305 | 0.0 | 2.0 | 0.00 | 0.00 | 0.00 | 79 | 1016.2 |
| 20260509211204 | 53 | 303 | 1.0 | 3.0 | 0.00 | 0.00 | 0.00 | 79 | 1016.2 |
| 20260509210204 | 54 | 322 | 0.0 | 3.0 | 0.00 | 0.00 | 0.00 | 78 | 1016.1 |
| 20260509205204 | 54 | 321 | 1.0 | 3.0 | 0.00 | 0.00 | 0.00 | 78 | 1016.2 |
| 20260509204704 | 54 | 335 | 1.0 | 3.0 | 0.00 | 0.00 | 0.00 | 77 | 1016.3 |
| 20260509204203 | 55 | 334 | 1.0 | 3.0 | 0.00 | 0.00 | 0.00 | 77 | 1016.3 |
| 20260509203703 | 55 | 328 | 2.0 | 5.0 | 0.00 | 0.00 | 0.00 | 77 | 1016.3 |
| 20260509203203 | 55 | 313 | 1.0 | 3.0 | 0.00 | 0.00 | 0.00 | 76 | 1016.3 |
| 20260509202703 | 55 | 318 | 2.0 | 3.0 | 0.00 | 0.00 | 0.00 | 76 | 1016.3 |
| 20260509202203 | 56 | 323 | 2.0 | 5.0 | 0.00 | 0.00 | 0.00 | 76 | 1016.3 |
| 20260509201704 | 56 | 296 | 1.0 | 3.0 | 0.00 | 0.00 | 0.00 | 75 | 1016.3 |
| 20260509201204 | 56 | 329 | 2.0 | 3.0 | 0.00 | 0.00 | 0.00 | 75 | 1016.3 |
| 20260509200703 | 56 | 326 | 2.0 | 3.0 | 0.00 | 0.00 | 0.00 | 74 | 1016.3 |
| 20260509200203 | 56 | 330 | 2.0 | 3.0 | 0.00 | 0.00 | 0.00 | 74 | 1016.3 |
| 20260509195704 | 57 | 322 | 2.0 | 5.0 | 0.00 | 0.00 | 0.00 | 74 | 1016.3 |
| 20260509195203 | 57 | 325 | 2.0 | 5.0 | 0.00 | 0.00 | 0.00 | 74 | 1016.2 |
| 20260509194703 | 57 | 346 | 3.0 | 5.0 | 0.00 | 0.00 | 0.00 | 73 | 1016.2 |
| 20260509194203 | 57 | 346 | 2.0 | 5.0 | 0.00 | 0.00 | 0.00 | 73 | 1016.2 |
| 20260509193203 | 58 | 333 | 3.0 | 5.0 | 0.00 | 0.00 | 0.00 | 72 | 1016.2 |
| 20260509192704 | 58 | 349 | 2.0 | 6.0 | 0.00 | 0.00 | 0.00 | 72 | 1016.1 |
| 20260509192204 | 58 | 346 | 2.0 | 5.0 | 0.00 | 0.00 | 0.00 | 72 | 1016.2 |
| 20260509191706 | 58 | 342 | 3.0 | 8.0 | 0.00 | 0.00 | 0.00 | 71 | 1016.2 |
| 20260509191203 | 58 | 336 | 2.0 | 6.0 | 0.00 | 0.00 | 0.00 | 71 | 1016.1 |
| 20260509190703 | 59 | 337 | 3.0 | 6.0 | 0.00 | 0.00 | 0.00 | 71 | 1016.0 |
| 20260509190204 | 59 | 339 | 3.0 | 6.0 | 0.00 | 0.00 | 0.00 | 71 | 1015.9 |
| 20260509185704 | 59 | 322 | 3.0 | 6.0 | 0.00 | 0.00 | 0.00 | 71 | 1015.9 |
| 20260509185204 | 59 | 344 | 2.0 | 7.0 | 0.00 | 0.00 | 0.00 | 71 | 1015.9 |
| 20260509184704 | 59 | 348 | 2.0 | 8.0 | 0.00 | 0.00 | 0.00 | 71 | 1015.9 |
| 20260509184203 | 59 | 337 | 2.0 | 9.0 | 0.00 | 0.00 | 0.00 | 71 | 1015.9 |
| 20260509183703 | 60 | 338 | 3.0 | 9.0 | 0.00 | 0.00 | 0.00 | 71 | 1015.8 |
| 20260509183204 | 60 | 324 | 5.0 | 9.0 | 0.00 | 0.00 | 0.00 | 70 | 1015.9 |
| 20260509182204 | 61 | 331 | 3.0 | 10.0 | 0.00 | 0.00 | 0.00 | 68 | 1015.9 |
| 20260509181704 | 61 | 324 | 3.0 | 8.0 | 0.00 | 0.00 | 0.00 | 67 | 1016.0 |
| 20260509180705 | 61 | 354 | 2.0 | 6.0 | 0.00 | 0.00 | 0.00 | 66 | 1016.0 |
| 20260509180204 | 61 | 336 | 3.0 | 6.0 | 0.00 | 0.00 | 0.00 | 66 | 1015.9 |
| 20260509175704 | 62 | 341 | 3.0 | 8.0 | 0.00 | 0.00 | 0.00 | 65 | 1015.9 |
| 20260509175204 | 62 | 349 | 3.0 | 6.0 | 0.00 | 0.00 | 0.00 | 65 | 1015.9 |
| 20260509174704 | 62 | 339 | 4.0 | 8.0 | 0.00 | 0.00 | 0.00 | 64 | 1015.9 |
| 20260509174204 | 62 | 319 | 3.0 | 9.0 | 0.00 | 0.00 | 0.00 | 64 | 1015.8 |
| 20260509173704 | 62 | 330 | 3.0 | 6.0 | 0.00 | 0.00 | 0.00 | 64 | 1015.8 |
| 20260509173203 | 62 | 358 | 2.0 | 7.0 | 0.00 | 0.00 | 0.00 | 63 | 1015.7 |
| 20260509172702 | 63 | 352 | 2.0 | 6.0 | 0.00 | 0.00 | 0.00 | 63 | 1015.7 |
| 20260509172203 | 63 | 26 | 2.0 | 8.0 | 0.00 | 0.00 | 0.00 | 62 | 1015.7 |
| 20260509171702 | 63 | 12 | 4.0 | 8.0 | 0.00 | 0.00 | 0.00 | 62 | 1015.6 |
| 20260509171203 | 63 | 23 | 4.0 | 8.0 | 0.00 | 0.00 | 0.00 | 61 | 1015.6 |
| 20260509170202 | 64 | 40 | 3.0 | 7.0 | 0.00 | 0.00 | 0.00 | 61 | 1015.6 |
| 20260509165703 | 64 | 15 | 3.0 | 7.0 | 0.00 | 0.00 | 0.00 | 61 | 1015.6 |
| 20260509165202 | 64 | 41 | 3.0 | 9.0 | 0.00 | 0.00 | 0.00 | 60 | 1015.5 |
| 20260509164703 | 64 | 32 | 3.0 | 7.0 | 0.00 | 0.00 | 0.00 | 60 | 1015.5 |
| 20260509164203 | 64 | 52 | 1.0 | 3.0 | 0.00 | 0.00 | 0.00 | 60 | 1015.5 |
| 20260509163703 | 64 | 10 | 2.0 | 5.0 | 0.00 | 0.00 | 0.00 | 61 | 1015.6 |
| 20260509163203 | 63 | 78 | 2.0 | 9.0 | 0.00 | 0.00 | 0.00 | 61 | 1015.6 |
| 20260509162704 | 63 | 346 | 3.0 | 9.0 | 0.00 | 0.00 | 0.00 | 61 | 1015.6 |
| 20260509162202 | 63 | 348 | 3.0 | 9.0 | 0.00 | 0.00 | 0.00 | 61 | 1015.6 |
| 20260509160702 | 64 | 20 | 3.0 | 8.0 | 0.00 | 0.00 | 0.00 | 60 | 1015.7 |
| 20260509160203 | 64 | 49 | 3.0 | 9.0 | 0.00 | 0.00 | 0.00 | 59 | 1015.8 |
| 20260509155203 | 64 | 4 | 3.0 | 8.0 | 0.00 | 0.00 | 0.00 | 59 | 1015.9 |
| 20260509154703 | 64 | 35 | 2.0 | 7.0 | 0.00 | 0.00 | 0.00 | 59 | 1015.9 |
| 20260509154202 | 64 | 66 | 6.0 | 13.0 | 0.00 | 0.00 | 0.00 | 58 | 1015.9 |
| 20260509153702 | 64 | 51 | 3.0 | 10.0 | 0.00 | 0.00 | 0.00 | 58 | 1015.9 |
| 20260509153203 | 64 | 36 | 3.0 | 7.0 | 0.00 | 0.00 | 0.00 | 58 | 1015.9 |
| 20260509152703 | 65 | 71 | 4.0 | 10.0 | 0.00 | 0.00 | 0.00 | 57 | 1016.0 |
| 20260509151702 | 66 | 44 | 6.0 | 9.0 | 0.00 | 0.00 | 0.00 | 56 | 1016.1 |
| 20260509150703 | 65 | 18 | 2.0 | 6.0 | 0.00 | 0.00 | 0.00 | 56 | 1016.2 |
| 20260509150203 | 66 | 296 | 1.0 | 3.0 | 0.00 | 0.00 | 0.00 | 55 | 1016.2 |
| 20260509145703 | 66 | 35 | 3.0 | 6.0 | 0.00 | 0.00 | 0.00 | 55 | 1016.3 |
| 20260509145203 | 65 | 28 | 3.0 | 6.0 | 0.00 | 0.00 | 0.00 | 57 | 1016.4 |
| 20260509144703 | 64 | 69 | 2.0 | 8.0 | 0.00 | 0.00 | 0.00 | 59 | 1016.4 |
| 20260509144203 | 63 | 31 | 1.0 | 5.0 | 0.00 | 0.00 | 0.00 | 60 | 1016.5 |
| 20260509143203 | 63 | 1 | 2.0 | 5.0 | 0.00 | 0.00 | 0.00 | 59 | 1016.6 |
| 20260509142703 | 63 | 24 | 2.0 | 8.0 | 0.00 | 0.00 | 0.00 | 58 | 1016.7 |
| 20260509141702 | 64 | 46 | 2.0 | 10.0 | 0.00 | 0.00 | 0.00 | 58 | 1016.8 |
| 20260509141203 | 64 | 24 | 3.0 | 6.0 | 0.00 | 0.00 | 0.00 | 58 | 1016.8 |
| 20260509140703 | 64 | 4 | 1.0 | 2.0 | 0.00 | 0.00 | 0.00 | 58 | 1016.8 |
| 20260509140203 | 64 | 354 | 2.0 | 6.0 | 0.00 | 0.00 | 0.00 | 58 | 1016.8 |
| 20260509135703 | 63 | 37 | 2.0 | 7.0 | 0.00 | 0.00 | 0.00 | 58 | 1016.9 |
| 20260509135203 | 63 | 19 | 3.0 | 6.0 | 0.00 | 0.00 | 0.00 | 58 | 1016.9 |
| 20260509134703 | 63 | 47 | 0.0 | 2.0 | 0.00 | 0.00 | 0.00 | 57 | 1017.0 |
| 20260509134203 | 63 | 74 | 4.0 | 8.0 | 0.00 | 0.00 | 0.00 | 58 | 1017.1 |